When you browse on this site, cookies collect data to enhance your experience and personalize the content and advertising you see.
Visit our Privacy Policy to learn more. By continuing to use the site, you agree to this use of cookies and data.
  • en Belgique
  • Liste des pays
  • À 7 jours
  • Température de l'eau
  • Carte météo
  • Widgets météo
  • user-avatar
    Se connecter

    Météo par heure à Lopastino

    Ce jour, 19 Août, Lundi

    Heure Température Précipitation Vent Pression Humidité
    00:00 +16°C° 0 mm 1 m/s 744 mmHg 99%
    01:00 +16°C° 0 mm 1 m/s 745 mmHg 99%
    02:00 +16°C° 0 mm 1 m/s 745 mmHg 99%
    03:00 +16°C° 0 mm 1 m/s 745 mmHg 99%
    04:00 +16°C° 0 mm 1 m/s 745 mmHg 99%
    05:00 +16°C° 0 mm 1 m/s 745 mmHg 99%
    06:00 +18°C° 0 mm 1 m/s 745 mmHg 98%
    07:00 +18°C° 0 mm 1 m/s 746 mmHg 97%
    08:00 +19°C° 0 mm 1 m/s 746 mmHg 95%
    09:00 +19°C° 0.1 mm 1 m/s 746 mmHg 94%
    10:00 +18°C° 0.1 mm 2 m/s 746 mmHg 92%
    11:00 +19°C° 0.1 mm 2 m/s 747 mmHg 90%
    12:00 +20°C° 0.1 mm 2 m/s 747 mmHg 86%
    13:00 +20°C° 0.1 mm 2 m/s 747 mmHg 82%
    14:00 +21°C° 0.1 mm 2 m/s 747 mmHg 78%
    15:00 +21°C° 0 mm 2 m/s 747 mmHg 77%
    16:00 +21°C° 0 mm 2 m/s 747 mmHg 76%
    17:00 +21°C° 0 mm 2 m/s 747 mmHg 75%
    18:00 +20°C° 0 mm 2 m/s 747 mmHg 82%
    19:00 +18°C° 0 mm 2 m/s 748 mmHg 89%
    20:00 +16°C° 0 mm 2 m/s 748 mmHg 96%
    21:00 +16°C° 0 mm 2 m/s 748 mmHg 96%
    22:00 +16°C° 0 mm 2 m/s 748 mmHg 96%
    23:00 +16°C° 0 mm 2 m/s 748 mmHg 96%

    Demain, 20 Août, Mardi

    Heure Température Précipitation Vent Pression Humidité
    00:00 +16°C° 0 mm 2 m/s 748 mmHg 96%
    01:00 +16°C° 0 mm 2 m/s 748 mmHg 97%
    02:00 +16°C° 0 mm 2 m/s 748 mmHg 97%
    03:00 +16°C° 0 mm 2 m/s 748 mmHg 97%
    04:00 +16°C° 0 mm 2 m/s 749 mmHg 98%
    05:00 +16°C° 0 mm 2 m/s 749 mmHg 98%
    06:00 +17°C° 0 mm 2 m/s 749 mmHg 95%
    07:00 +19°C° 0 mm 2 m/s 749 mmHg 93%
    08:00 +20°C° 0 mm 2 m/s 749 mmHg 90%
    09:00 +21°C° 0 mm 2 m/s 750 mmHg 87%
    10:00 +21°C° 0 mm 2 m/s 750 mmHg 84%
    11:00 +23°C° 0 mm 2 m/s 750 mmHg 81%
    12:00 +23°C° 0 mm 2 m/s 750 mmHg 80%
    13:00 +24°C° 0 mm 2 m/s 750 mmHg 79%
    14:00 +24°C° 0 mm 2 m/s 751 mmHg 77%
    15:00 +23°C° 0.2 mm 1 m/s 751 mmHg 82%
    16:00 +22°C° 0.2 mm 1 m/s 751 mmHg 87%
    17:00 +21°C° 0.2 mm 1 m/s 751 mmHg 91%
    18:00 +20°C° 0 mm 1 m/s 751 mmHg 92%
    19:00 +19°C° 0 mm 1 m/s 751 mmHg 94%
    20:00 +18°C° 0 mm 1 m/s 751 mmHg 95%
    21:00 +16°C° 0 mm 1 m/s 752 mmHg 95%
    22:00 +16°C° 0 mm 1 m/s 752 mmHg 95%
    23:00 +15°C° 0 mm 1 m/s 752 mmHg 95%

    Après-demain, 21 Août, Mercredi

    Heure Température Précipitation Vent Pression Humidité
    00:00 +15°C° 0 mm 1 m/s 752 mmHg 95%
    01:00 +15°C° 0 mm 1 m/s 753 mmHg 95%
    02:00 +14°C° 0 mm 1 m/s 753 mmHg 95%
    03:00 +13°C° 0 mm 0 m/s 753 mmHg 95%
    04:00 +13°C° 0 mm 0 m/s 753 mmHg 94%
    05:00 +13°C° 0 mm 0 m/s 753 mmHg 94%
    06:00 +15°C° 0 mm 0 m/s 753 mmHg 89%
    07:00 +16°C° 0 mm 0 m/s 753 mmHg 84%
    08:00 +18°C° 0 mm 0 m/s 754 mmHg 80%
    09:00 +21°C° 0 mm 1 m/s 754 mmHg 74%
    10:00 +22°C° 0 mm 1 m/s 754 mmHg 69%
    11:00 +24°C° 0 mm 1 m/s 754 mmHg 64%
    12:00 +24°C° 0 mm 1 m/s 753 mmHg 64%
    13:00 +24°C° 0 mm 1 m/s 753 mmHg 64%
    14:00 +24°C° 0 mm 1 m/s 753 mmHg 64%
    15:00 +24°C° 0.1 mm 1 m/s 753 mmHg 70%
    16:00 +23°C° 0.1 mm 1 m/s 752 mmHg 77%
    17:00 +22°C° 0.1 mm 1 m/s 752 mmHg 83%
    18:00 +21°C° 1 mm 1 m/s 751 mmHg 88%
    19:00 +20°C° 1 mm 1 m/s 751 mmHg 93%
    20:00 +18°C° 1 mm 2 m/s 751 mmHg 98%
    21:00 +18°C° 0.6 mm 2 m/s 751 mmHg 98%
    22:00 +18°C° 0.6 mm 2 m/s 750 mmHg 98%
    23:00 +18°C° 0.6 mm 2 m/s 750 mmHg 98%

    22 Août, Jeudi

    Heure Température Précipitation Vent Pression Humidité
    00:00 +19°C° 0.8 mm 1 m/s 750 mmHg 99%
    01:00 +19°C° 0.8 mm 1 m/s 750 mmHg 99%
    02:00 +19°C° 0.8 mm 1 m/s 750 mmHg 99%
    03:00 +19°C° 1.6 mm 1 m/s 749 mmHg 99%
    04:00 +19°C° 1.6 mm 1 m/s 749 mmHg 99%
    05:00 +19°C° 1.6 mm 1 m/s 749 mmHg 99%
    06:00 +17°C° 0.3 mm 2 m/s 749 mmHg 97%
    07:00 +16°C° 0.3 mm 3 m/s 750 mmHg 96%
    08:00 +16°C° 0.3 mm 3 m/s 750 mmHg 94%
    09:00 +16°C° 0 mm 3 m/s 750 mmHg 91%
    10:00 +17°C° 0 mm 3 m/s 750 mmHg 88%
    11:00 +17°C° 0 mm 3 m/s 751 mmHg 85%
    12:00 +18°C° 0 mm 3 m/s 751 mmHg 80%
    13:00 +19°C° 0 mm 2 m/s 751 mmHg 76%
    14:00 +20°C° 0 mm 2 m/s 751 mmHg 72%
    15:00 +20°C° 0 mm 2 m/s 751 mmHg 72%
    16:00 +21°C° 0 mm 1 m/s 751 mmHg 71%
    17:00 +21°C° 0 mm 1 m/s 751 mmHg 71%
    18:00 +20°C° 0 mm 1 m/s 752 mmHg 77%
    19:00 +18°C° 0 mm 1 m/s 752 mmHg 82%
    20:00 +15°C° 0 mm 1 m/s 752 mmHg 88%
    21:00 +14°C° 0 mm 1 m/s 752 mmHg 89%
    22:00 +14°C° 0 mm 1 m/s 752 mmHg 90%
    23:00 +13°C° 0 mm 1 m/s 753 mmHg 90%

    23 Août, Vendredi

    Heure Température Précipitation Vent Pression Humidité
    00:00 +12°C° 0 mm 1 m/s 753 mmHg 90%
    01:00 +12°C° 0 mm 1 m/s 753 mmHg 89%
    02:00 +11°C° 0 mm 1 m/s 753 mmHg 89%
    03:00 +11°C° 0 mm 1 m/s 753 mmHg 89%
    04:00 +11°C° 0 mm 1 m/s 753 mmHg 89%
    05:00 +11°C° 0 mm 1 m/s 753 mmHg 89%
    06:00 +13°C° 0 mm 1 m/s 753 mmHg 83%
    07:00 +14°C° 0 mm 1 m/s 754 mmHg 76%
    08:00 +16°C° 0 mm 1 m/s 754 mmHg 70%
    09:00 +18°C° 0 mm 2 m/s 754 mmHg 66%
    10:00 +19°C° 0 mm 2 m/s 754 mmHg 62%
    11:00 +20°C° 0 mm 2 m/s 754 mmHg 58%
    12:00 +20°C° 0.1 mm 2 m/s 753 mmHg 58%
    13:00 +20°C° 0.1 mm 2 m/s 753 mmHg 59%
    14:00 +21°C° 0.1 mm 3 m/s 753 mmHg 60%
    15:00 +20°C° 0.3 mm 2 m/s 753 mmHg 66%
    16:00 +19°C° 0.3 mm 2 m/s 753 mmHg 72%
    17:00 +20°C° 0.3 mm 1 m/s 753 mmHg 79%
    18:00 +18°C° 0 mm 1 m/s 753 mmHg 82%
    19:00 +15°C° 0 mm 1 m/s 753 mmHg 85%
    20:00 +14°C° 0 mm 1 m/s 753 mmHg 88%
    21:00 +13°C° 0 mm 1 m/s 753 mmHg 88%
    22:00 +12°C° 0 mm 1 m/s 753 mmHg 89%
    23:00 +12°C° 0 mm 1 m/s 753 mmHg 90%

    24 Août, Samedi

    Heure Température Précipitation Vent Pression Humidité
    00:00 +11°C° 0 mm 1 m/s 753 mmHg 90%
    01:00 +11°C° 0 mm 1 m/s 754 mmHg 90%
    02:00 +11°C° 0 mm 1 m/s 754 mmHg 90%
    03:00 +11°C° 0 mm 1 m/s 754 mmHg 90%
    04:00 +10°C° 0 mm 1 m/s 754 mmHg 91%
    05:00 +9°C° 0 mm 2 m/s 754 mmHg 91%
    06:00 +12°C° 0 mm 2 m/s 754 mmHg 86%
    07:00 +14°C° 0 mm 2 m/s 754 mmHg 81%
    08:00 +16°C° 0 mm 2 m/s 754 mmHg 76%
    09:00 +16°C° 0 mm 2 m/s 754 mmHg 76%
    10:00 +16°C° 0 mm 2 m/s 754 mmHg 75%
    11:00 +17°C° 0 mm 2 m/s 754 mmHg 75%
    12:00 +17°C° 0 mm 2 m/s 754 mmHg 72%
    13:00 +18°C° 0 mm 2 m/s 754 mmHg 70%
    14:00 +19°C° 0 mm 2 m/s 754 mmHg 68%
    15:00 +19°C° 0 mm 2 m/s 754 mmHg 70%
    16:00 +19°C° 0 mm 2 m/s 754 mmHg 73%
    17:00 +19°C° 0 mm 2 m/s 754 mmHg 76%
    18:00 +17°C° 0 mm 2 m/s 754 mmHg 82%
    19:00 +16°C° 0 mm 2 m/s 754 mmHg 89%
    20:00 +14°C° 0 mm 2 m/s 754 mmHg 95%
    21:00 +14°C° 0 mm 2 m/s 754 mmHg 96%
    22:00 +14°C° 0 mm 2 m/s 754 mmHg 96%
    23:00 +13°C° 0 mm 2 m/s 754 mmHg 97%
    Voir plus